EW7348 Weather Reports


Display with metric or nautical units.
time (UTC)temp
F
wind
direction
speed
MPH
gust
MPH
rain 1hr
in
rain 24hr
in
rain mn
in
humidity
%
barometer
mb
20260510162542 54 257 7.0 10.0 0.00 0.03 0.01 100 1016.8
20260510161543 54 234 4.0 8.0 0.00 0.04 0.01 100 1016.8
20260510160543 53 253 5.0 9.0 0.00 0.04 0.01 100 1016.8
20260510155642 53 262 7.0 12.0 0.00 0.05 0.01 100 1016.8
20260510154641 53 248 6.0 9.0 0.00 0.05 0.01 100 1016.8
20260510153642 53 253 5.0 8.0 0.00 0.05 0.01 100 1016.7
20260510152642 53 252 4.0 6.0 0.00 0.06 0.01 100 1016.7
20260510150740 53 267 8.0 14.0 0.00 0.07 0.01 100 1016.3
20260510145744 53 261 6.0 10.0 0.01 0.08 0.01 100 1016.2
20260510144841 53 219 5.0 9.0 0.01 0.10 0.01 100 1016.0
20260510144742 53 252 6.0 8.0 0.01 0.10 0.01 100 1016.0
20260510143741 53 265 5.0 9.0 0.01 0.11 0.01 100 1015.9
20260510142741 53 225 6.0 11.0 0.01 0.12 0.01 100 1015.5
20260510141840 53 264 5.0 7.0 0.01 0.13 0.01 100 1015.6
20260510140841 54 262 6.0 10.0 0.01 0.14 0.01 100 1015.7
20260510135940 54 251 3.0 5.0 0.00 0.14 0.00 100 1015.2
20260510134941 54 247 1.0 2.0 0.00 0.16 0.00 100 1015.1
20260510134039 54 263 1.0 2.0 0.00 0.17 0.00 100 1014.9
20260510132040 54 270 1.0 3.0 0.00 0.19 0.00 100 1014.9
20260510131043 54 247 0.0 0.0 0.00 0.20 0.00 100 1014.7
20260510125043 54 247 0.0 0.0 0.00 0.20 0.00 100 1014.5
20260510124042 53 180 0.0 1.0 0.00 0.21 0.00 100 1014.2
20260510123041 53 225 0.0 0.0 0.00 0.22 0.00 100 1014.2
20260510122040 52 225 0.0 0.0 0.00 0.22 0.00 100 1014.3
20260510121042 52 225 0.0 0.0 0.00 0.22 0.00 100 1014.2
20260510120140 52 225 0.0 0.0 0.00 0.22 0.00 100 1014.3
20260510115140 52 180 0.0 1.0 0.00 0.23 0.00 100 1014.2
20260510113241 51 180 0.0 0.0 0.00 0.23 0.00 100 1013.7
20260510112242 51 180 0.0 1.0 0.00 0.23 0.00 100 1013.8
20260510110339 51 180 0.0 2.0 0.00 0.23 0.00 100 1013.6
20260510103340 50 180 2.0 3.0 0.00 0.23 0.00 100 1013.1
20260510102341 50 180 0.0 1.0 0.00 0.23 0.00 100 1013.0
20260510101339 50 180 0.0 1.0 0.00 0.23 0.00 100 1012.9
20260510100342 50 180 1.0 3.0 0.00 0.23 0.00 100 1012.8
20260510095340 50 180 1.0 2.0 0.00 0.23 0.00 100 1012.6
20260510094339 50 180 2.0 4.0 0.00 0.23 0.00 100 1012.4
20260510093341 49 180 2.0 3.0 0.00 0.23 0.00 100 1012.1
20260510091439 49 180 1.0 2.0 0.00 0.23 0.00 100 1011.9
20260510090442 50 180 0.0 1.0 0.00 0.23 0.00 100 1012.1
20260510085539 50 180 0.0 0.0 0.00 0.23 0.00 100 1012.2
20260510084539 50 180 0.0 0.0 0.00 0.23 0.00 100 1012.0
20260510083539 50 180 2.0 3.0 0.00 0.23 0.00 100 1011.8
20260510082540 50 180 1.0 2.0 0.00 0.23 0.00 100 1012.0
20260510081539 50 180 1.0 3.0 0.00 0.23 0.00 100 1012.0
20260510080538 50 180 0.0 0.0 0.00 0.23 0.00 100 1012.0
20260510075540 50 180 0.0 0.0 0.00 0.23 0.00 100 1012.1
20260510074638 50 180 0.0 2.0 0.00 0.23 0.00 100 1012.2
20260510073639 51 180 1.0 5.0 0.00 0.23 0.00 100 1011.5
20260510072738 51 180 0.0 0.0 0.00 0.23 0.00 100 1011.9
20260510071740 51 180 4.0 6.0 0.00 0.23 0.00 100 1011.5
20260510070839 51 180 2.0 3.0 0.00 0.23 0.00 100 1011.7
20260510065837 51 180 0.0 1.0 0.00 0.23 0.00 100 1012.1
20260510064840 51 180 2.0 3.0 0.00 0.23 0.00 100 1012.5
20260510062840 51 180 0.0 0.0 0.00 0.23 0.00 100 1012.8
20260510060940 52 180 0.0 0.0 0.00 0.23 0.00 100 1012.9
20260510054940 52 189 0.0 2.0 0.00 0.23 0.00 100 1012.9
20260510054038 52 180 1.0 2.0 0.00 0.23 0.00 100 1012.6
20260510053041 52 180 1.0 1.0 0.00 0.23 0.00 100 1012.6
20260510052038 52 180 0.0 2.0 0.00 0.23 0.00 100 1012.4
20260510051040 52 180 2.0 3.0 0.00 0.23 0.00 100 1012.2
20260510050040 52 180 0.0 2.0 0.00 0.23 0.00 100 1012.2
20260510044037 52 180 1.0 3.0 0.00 0.23 0.00 100 1012.2
20260510043136 52 180 2.0 4.0 0.00 0.23 0.00 100 1012.2
20260510042138 52 180 1.0 2.0 0.00 0.23 0.00 100 1012.3
20260510041139 52 180 0.0 2.0 0.00 0.23 0.00 100 1012.3
20260510040140 52 355 1.0 2.0 0.00 0.23 0.00 100 1012.3
20260510035147 52 225 1.0 2.0 0.00 0.23 0.23 100 1012.3
20260510034148 52 180 1.0 3.0 0.00 0.23 0.23 100 1012.1
20260510033244 52 180 2.0 3.0 0.00 0.23 0.23 100 1012.0
20260510032248 52 180 2.0 4.0 0.00 0.23 0.23 100 1012.2
20260510031346 52 180 3.0 5.0 0.00 0.23 0.23 100 1012.1
20260510030446 52 188 4.0 8.0 0.00 0.23 0.23 100 1011.9
20260510025446 52 180 3.0 6.0 0.00 0.23 0.23 100 1012.1
20260510024445 52 180 4.0 8.0 0.00 0.23 0.23 100 1012.1
20260510022446 52 180 2.0 4.0 0.00 0.23 0.23 100 1012.3
20260510021444 52 180 1.0 2.0 0.00 0.23 0.23 100 1012.3
20260510020445 52 180 4.0 7.0 0.00 0.23 0.23 100 1012.1
20260510015446 52 192 2.0 4.0 0.00 0.23 0.23 100 1012.2
20260510014446 52 180 4.0 5.0 0.00 0.23 0.23 100 1012.1
20260510013445 52 181 5.0 9.0 0.00 0.23 0.23 100 1012.3
20260510012446 52 188 4.0 7.0 0.00 0.23 0.23 100 1012.0
20260510011545 53 180 4.0 7.0 0.00 0.23 0.23 100 1011.8
20260510010644 53 180 4.0 7.0 0.00 0.23 0.23 100 1012.1
20260510005646 53 180 2.0 7.0 0.00 0.23 0.23 100 1012.2
20260510004744 53 181 3.0 6.0 0.00 0.23 0.23 100 1011.8
20260510003745 53 180 3.0 5.0 0.00 0.23 0.23 100 1011.9
20260510002746 53 180 3.0 4.0 0.00 0.23 0.23 100 1012.0
20260510001844 53 180 3.0 4.0 0.00 0.23 0.23 100 1011.9
20260510000845 53 180 2.0 5.0 0.00 0.23 0.23 100 1011.8
20260509234944 53 180 2.0 3.0 0.00 0.23 0.23 100 1011.4
20260509233944 53 180 2.0 4.0 0.00 0.23 0.23 100 1011.4
20260509232946 53 180 2.0 4.0 0.00 0.23 0.23 100 1011.4
20260509232045 53 180 2.0 3.0 0.00 0.23 0.23 100 1011.2
20260509231045 53 180 1.0 3.0 0.00 0.23 0.23 100 1011.2
20260509230144 53 180 0.0 1.0 0.00 0.23 0.23 100 1010.9
20260509224145 53 180 0.0 1.0 0.00 0.23 0.23 100 1011.1
20260509223145 53 180 1.0 4.0 0.00 0.23 0.23 100 1011.1
20260509222245 53 180 1.0 2.0 0.00 0.23 0.23 100 1011.0
20260509222144 53 180 2.0 4.0 0.00 0.23 0.23 100 1011.0
20260509220244 52 180 0.0 0.0 0.00 0.23 0.23 100 1011.3
20260509215244 52 180 0.0 0.0 0.00 0.23 0.23 100 1011.4
20260509212345 51 180 2.0 3.0 0.00 0.23 0.23 100 1011.6
20260509211345 50 180 4.0 5.0 0.00 0.23 0.23 100 1011.6
20260509210345 50 180 3.0 4.0 0.00 0.23 0.23 100 1011.7
20260509205444 50 180 3.0 4.0 0.00 0.23 0.23 100 1011.7
20260509204445 50 180 2.0 4.0 0.00 0.23 0.23 100 1011.8
20260509203543 50 180 3.0 6.0 0.00 0.23 0.23 100 1011.9
20260509202642 50 180 2.0 4.0 0.00 0.23 0.23 100 1012.0
20260509201646 50 180 2.0 4.0 0.00 0.23 0.23 100 1012.2
20260509201543 50 180 2.0 4.0 0.00 0.23 0.23 100 1012.2
20260509200544 49 180 2.0 4.0 0.00 0.23 0.23 100 1012.2
20260509194545 49 180 3.0 7.0 0.00 0.23 0.23 100 1012.4
20260509193546 49 191 2.0 4.0 0.00 0.23 0.23 100 1012.5
20260509192543 49 190 2.0 4.0 0.00 0.23 0.23 100 1012.5
20260509190543 49 180 4.0 7.0 0.00 0.23 0.23 100 1012.7
20260509185545 49 180 3.0 4.0 0.00 0.23 0.23 100 1012.8
20260509184544 49 180 2.0 4.0 0.00 0.23 0.23 100 1012.8
20260509183545 48 180 3.0 7.0 0.00 0.23 0.23 100 1012.9
20260509182544 48 180 4.0 8.0 0.00 0.23 0.23 100 1012.6
20260509181544 48 182 3.0 6.0 0.01 0.23 0.23 100 1012.8
20260509180544 48 180 3.0 5.0 0.01 0.23 0.23 100 1012.8
20260509175545 48 180 3.0 4.0 0.01 0.23 0.23 100 1013.1
20260509172644 47 180 4.0 7.0 0.02 0.23 0.23 100 1013.1
20260509171646 48 180 3.0 4.0 0.02 0.22 0.22 100 1013.0
20260509165742 47 180 4.0 6.0 0.03 0.22 0.22 100 1013.2
20260509164745 47 180 3.0 4.0 0.02 0.21 0.21 100 1013.3